Flag for Colombia Weather past 2 weeks in Bogota, Colombia

Now
54 °F

Scattered clouds.


Feels Like: 53 °F
Forecast: 45 / 63 °F
Wind: 3 mph from Southeast

Location: Bogota / Eldorado

Current Time: Jan 25, 2015 at 7:52:18 AM

Latest Report: Jan 25, 2015 at 7:00 AM


Visibility: N/A

Pressure: 30.29 "Hg

Humidity: 94%

Dew point: 52 °F

Location of BogotaLocation

Historic Weather in Bogota — Graph

°F

Bogota temperature yesterday

Maximum temperature yesterday: 64 °F (at 12:00 PM)
Minimum temperature yesterday: 48 °F (at 6:00 AM)
Average temperature yesterday: 56 °F

Past Weeks' High & Low Weather Summary

 TemperatureHumidityPressure
High72 °F (Jan 13, 12:00 PM)100% (Jan 10, 9:00 AM)30.40 "Hg (Jan 10, 9:00 AM)
Low45 °F (Jan 11, 1:00 AM)29% (Jan 13, 12:00 PM)30.21 "Hg (Jan 20, 4:00 PM)
Average57 °F76%30.32 "Hg
* Reported Jan 10 7:00 AM — Jan 25 7:00 AM, Bogota, Weather by CustomWeather, © 2014

Note: Actual official high and low records may vary slightly from our data, if they occured in-between our weather recording intervals... More about our weather records

Advertising

Bogota weather history for previous 24 hours

 ConditionsComfort  
Time TempWeatherWind HumidityBarometerVisibility
7:00 AM
Jan 25
54 °FScattered clouds.3 mph94%30.29 "HgN/A
6:00 AM52 °FFog.3 mph94%30.29 "Hg5 mi
5:00 AM48 °FPassing clouds.3 mph100%30.27 "Hg4 mi
4:00 AM52 °FPassing clouds.2 mph94%30.25 "Hg4 mi
3:00 AM52 °FPassing clouds.5 mph100%30.27 "Hg4 mi
2:00 AM50 °FPassing clouds.2 mph100%30.28 "Hg5 mi
12:00 AM52 °FPassing clouds.5 mph94%30.32 "Hg5 mi
11:00 PM
Jan 24
54 °FPassing clouds.3 mph94%30.33 "HgN/A
10:00 PM54 °FPassing clouds.2 mph94%30.33 "HgN/A
7:00 PM57 °FScattered showers. Passing clouds.7 mph82%30.27 "HgN/A
5:00 PM63 °FScattered showers. Broken clouds.12 mph68%30.24 "HgN/A
3:00 PM64 °FPartly sunny.14 mph64%30.24 "HgN/A
2:00 PM63 °FPartly sunny.13 mph64%30.27 "HgN/A
1:00 PM63 °FPartly sunny.9 mph64%30.30 "HgN/A
12:00 PM64 °FScattered showers. Scattered clouds.12 mph68%30.32 "Hg6 mi
11:00 AM63 °FScattered clouds.12 mph64%30.34 "Hg6 mi
10:00 AM63 °FScattered clouds.5 mph64%30.35 "Hg6 mi
9:00 AM57 °FScattered clouds.5 mph94%30.35 "Hg5 mi
8:00 AM54 °FFog.2 mph94%30.35 "Hg2 mi
7:00 AM50 °FCool.2 mph94%30.33 "Hg1 mi
Weather by CustomWeather, © 2014

See weather overviewHow to use our weather pages